Location: Albany
(35.0170°S, 117.8920°E)
Time: 08:58:34
(UTC+08:00)

S-56A Canister/Altair - Pass Details

Date: 26 January 2021
Orbit: 632 x 2501 km, 38.9° (Epoch: 25 February)

Event Time Altitude Azimuth Distance (km) Brightness Sun altitude
Rises 12:35:17 0° 308° (NW) 5,163 11.9 73.3°
Reaches altitude 10° 12:38:20 10° 310° (NW) 4,381 11.7 73.2°
Maximum altitude 12:51:00 70° 31° (NNE) 2,500 12.0 72.3°
Drops below altitude 10° 13:06:09 10° 110° (ESE) 5,147 11.7 70.8°
Sets 13:10:03 0° 111° (ESE) 6,081 11.9 70.4°
